Temperature
12 11 11 12 12 11 12 12 12 12 11 11 11 11 11 11 11 11 11 11 11 11 11 11 11 11 11 11 11 11 11 11 11 11 11 11 11 11 11 11 11 11 11
11 11 11 11 11 11 11 11 11 11 11 11 11 11 11 11 11 11 11 11 11 11 11 11 11 11 11 11 11 11 11 11 11 11 11 11 11 10 10 10 10 10 10
11 11 11 11 11 11 11 11 11 11 11 11 11 11 11 11 11 10 10 10 11 11 11 11 11 11 11 11 11 11 11 11 11 11 10 10 10 10 10 10 10 10 10
11 11 11 11 11 11 11 11 11 10 10 10 10 10 10 10 10 10 10 10 10 10 11 11 11 11 11 11 10 10 10 10 10 10 10 10 10 10 10 10 10 10 10
10 10 10 10 10 10 10 10 10 10 10 10 10 10 10 10 10 10 10 10 10 10 10 10 11 10 10 10 10 10 10 10 10 10 10 10 10 10 10 9 9 9 9
10 10 10 10 10 10 10 10 10 10 10 10 10 10 10 10 10 10 10 10 10 10 10 10 10 10 10 10 10 10 10 10 10 10 10 10 10 9 9 9 9 9 9
9 9 9 9 9 9 10 10 9 9 9 9 9 9 9 9 9 9 10 10 10 10 10 10 10 10 10 10 10 10 10 10 10 10 10 9 9 9 9 9 9 9 9
9 9 9 9 9 9 9 9 9 9 9 9 9 9 9 9 9 9 9 9 9 9 9 9 9 9 9 9 10 10 10 10 9 9 9 9 9 9 9 9 9 8 8
8 8 8 8 8 9 9 9 9 9 9 9 9 9 9 9 9 9 9 9 9 9 9 9 9 9 9 9 9 9 9 9 9 9 9 9 9 9 9 8 8 8 8
8 8 8 8 8 8 8 9 9 8 8 8 8 9 9 9 9 8 9 9 9 9 9 9 9 9 9 9 9 9 9 9 9 9 9 9 9 8 8 8 8 8 8
7 7 7 8 7 8 8 8 8 8 8 8 8 8 9 9 9 8 8 8 9 9 9 9 9 9 9 8 9 9 9 9 9 9 8 8 8 8 8 8 8 8 7
7 7 7 7 7 7 7 8 8 8 8 8 8 8 8 8 8 8 8 8 8 8 8 8 8 8 8 8 8 9 9 8 8 8 8 8 8 8 8 8 7 7 7
6 6 6 7 7 7 7 7 7 7 7 7 7 7 8 8 8 8 8 8 8 8 8 8 8 8 8 8 8 8 8 8 8 8 8 8 8 8 8 7 7 7 7
5 5 6 6 6 6 6 6 6 7 7 7 7 7 7 7 8 8 8 8 8 7 8 8 8 8 8 8 8 8 8 8 8 8 8 8 8 8 7 7 7 7 7
4 5 5 5 6 6 6 6 6 6 6 6 7 7 7 7 7 7 8 7 7 7 7 7 8 8 8 8 8 8 8 8 8 8 8 7 7 7 7 7 7 7 6
4 4 4 5 5 5 5 5 5 6 6 6 6 6 6 7 7 7 7 7 7 7 7 7 7 8 8 8 8 8 7 7 7 7 7 7 7 7 7 7 6 6 6
3 3 4 4 4 4 5 5 5 5 5 6 6 6 6 6 6 6 7 7 7 7 7 7 7 7 7 7 7 7 7 7 7 7 7 7 7 7 6 6 6 6 6
2 3 3 3 3 4 4 4 4 5 5 5 5 5 6 6 6 6 6 6 6 6 6 7 7 7 7 7 7 7 7 7 7 7 7 6 6 6 6 6 6 5 5
2 2 2 3 3 3 3 4 4 4 4 4 5 5 5 5 5 6 6 6 6 6 6 6 6 6 6 6 6 6 6 6 6 6 6 6 6 6 6 5 5 5 5
1 1 2 2 2 2 3 3 3 3 4 4 4 4 4 5 5 5 5 5 5 5 5 6 6 6 6 6 5 5 5 6 6 6 6 5 5 5 5 5 5 4 4
0 1 1 1 1 2 2 2 3 3 3 3 3 3 4 4 4 5 5 5 5 5 5 5 5 5 5 5 5 5 5 5 5 5 5 5 5 4 4 4 4 4 4
-0 -0 -0 0 1 1 1 1 2 2 2 2 3 3 3 3 4 4 4 4 4 4 4 4 4 4 5 5 5 4 4 4 4 4 4 4 4 4 4 4 4 4 3
-1 -1 -1 -0 -0 0 1 1 1 1 1 2 2 2 3 3 3 3 3 4 4 4 4 4 4 4 4 4 4 4 4 4 4 4 4 3 3 3 3 3 3 3 3
-2 -2 -1 -1 -1 -0 -0 0 0 0 1 1 1 2 2 2 3 3 3 3 3 3 3 3 4 4 4 4 4 4 4 3 3 3 3 3 3 3 3 3 3 3 3
-3 -2 -2 -2 -1 -1 -1 -1 -0 -0 -0 0 1 1 1 1 2 2 2 2 3 3 3 3 3 3 3 3 3 3 3 3 2 2 2 2 2 2 2 2 2 2 2
-3 -3 -3 -2 -2 -2 -2 -1 -1 -1 -1 -1 -0 0 0 1 1 1 1 2 2 2 2 2 2 2 2 2 2 2 2 2 2 2 2 2 2 1 1 1 1 1 1
Wind_Speed
5 5 4 5 6 5 6 6 6 6 6 6 5 5 5 4 3 3 5 6 5 5 6 6 7 7 7 7 8 8 8 8 8 8 7 7 7 7 7 8 8 8 8
5 5 4 4 5 5 5 5 6 6 5 5 5 5 4 4 3 3 3 5 5 5 4 5 5 6 6 7 7 7 7 7 7 7 6 6 6 6 6 6 6 6 6
6 5 5 4 4 5 6 5 6 5 5 4 4 4 4 3 3 3 3 3 4 4 3 3 4 5 5 6 6 6 6 6 6 6 6 6 5 6 6 5 5 4 4
7 6 5 5 5 5 6 5 5 5 5 4 4 3 3 3 3 3 3 3 3 3 3 4 4 4 5 6 6 6 6 5 5 5 5 4 4 4 4 4 3 3 3
8 6 5 5 6 5 5 5 4 4 5 4 3 3 3 3 3 3 3 3 3 2 3 5 5 4 4 5 6 6 5 5 5 5 4 4 3 3 3 2 2 2 2
7 7 5 6 7 5 5 5 5 4 4 4 3 3 2 3 3 3 3 3 3 3 3 3 4 4 3 3 4 5 4 4 4 4 3 3 3 2 2 1 1 1 2
6 7 6 6 7 6 6 7 6 5 4 4 3 3 2 2 3 3 4 3 4 4 4 4 4 4 4 4 4 4 4 4 4 4 3 3 3 3 2 1 1 1 1
5 6 7 7 7 6 7 7 7 5 4 5 4 4 3 3 3 3 3 3 4 4 5 5 4 4 4 4 4 4 4 4 4 4 3 3 3 3 2 2 2 2 2
5 6 7 7 7 7 7 8 8 8 6 5 5 4 4 4 3 4 4 4 4 4 4 5 5 5 5 4 4 5 5 5 5 4 4 4 3 3 3 3 2 2 2
3 4 6 7 7 6 7 8 8 7 8 6 5 4 4 2 3 3 4 5 5 5 5 4 6 6 6 5 5 4 5 5 5 5 5 5 4 4 3 4 3 3 2
3 4 4 5 7 7 7 7 7 8 8 8 6 4 4 3 4 3 4 5 5 5 5 5 6 6 7 6 6 6 6 6 6 7 7 6 5 5 4 4 4 4 3
2 3 4 5 6 7 8 8 8 9 8 8 7 6 6 5 5 5 4 5 5 4 5 5 6 6 7 7 6 6 7 7 8 8 8 7 7 6 5 5 5 4 4
2 4 4 4 5 6 7 8 8 8 9 10 9 7 7 7 5 5 4 4 4 3 4 4 6 7 7 7 6 7 8 8 8 9 8 8 7 7 6 6 5 5 4
4 4 4 4 5 6 6 7 7 8 8 9 9 9 7 6 6 6 5 4 4 4 5 5 4 7 6 6 6 8 7 9 9 9 8 8 7 7 7 6 6 5 5
4 4 4 4 4 5 6 6 6 7 8 8 9 9 7 6 6 6 6 6 5 5 6 5 4 5 6 5 6 7 7 8 9 9 8 8 8 8 8 7 7 6 6
4 4 4 4 4 4 5 6 7 7 8 8 7 9 8 6 6 6 6 6 6 6 5 4 4 4 5 5 6 6 6 7 8 9 9 8 8 8 8 8 7 7 7
4 4 4 4 4 5 5 5 6 7 8 8 7 8 8 8 6 6 6 6 6 6 6 4 3 4 5 5 5 5 5 6 6 8 9 8 8 8 8 8 8 7 7
5 5 5 4 5 5 5 6 7 7 7 8 8 8 8 7 7 6 6 6 6 6 6 6 4 4 5 5 5 5 4 4 5 7 9 9 9 9 8 8 8 7 7
5 5 5 5 5 5 5 6 7 7 8 8 8 8 8 8 8 7 7 6 6 5 5 5 4 3 3 4 4 3 4 3 3 5 7 9 9 9 9 8 8 8 7
5 5 5 5 5 5 5 5 6 7 7 8 7 8 8 9 9 8 7 7 6 6 5 5 4 4 3 3 4 4 4 3 3 3 4 6 7 8 8 8 8 9 8
6 5 5 5 5 5 5 5 6 6 7 7 7 8 8 8 8 7 6 6 6 6 5 5 5 4 4 4 5 4 4 3 3 3 3 4 5 6 7 8 9 9 9
5 5 5 6 6 5 5 6 6 6 6 6 7 6 6 7 7 7 7 7 8 8 7 6 6 6 7 6 5 5 4 3 3 3 3 4 4 4 5 6 7 9 9
5 5 5 6 6 6 6 6 7 6 7 7 7 6 5 6 7 7 7 7 7 8 8 8 8 8 7 7 7 7 6 5 4 2 3 4 3 4 5 6 7 9 9
5 5 5 6 6 6 6 6 7 6 6 7 7 7 6 5 5 6 6 7 7 7 7 7 7 7 6 6 7 7 6 4 2 2 3 3 3 4 4 5 7 8 9
6 5 5 6 6 6 6 6 6 5 5 6 6 6 6 6 6 6 7 7 7 5 5 6 5 5 5 6 6 4 5 4 3 3 3 3 2 3 3 4 5 7 8
6 6 5 5 5 5 5 6 6 4 5 5 5 6 7 7 7 7 7 7 7 6 5 4 4 4 5 6 7 7 6 6 4 3 4 3 2 1 2 2 3 5 6
Wind_Direction
158 155 157 159 159 156 159 158 156 152 149 146 143 140 134 127 124 120 113 99 107 123 135 138 135 130 126 126 121 111 109 108 105 104 101 98 95 94 90 85 81 78 74
165 164 162 162 162 164 163 164 161 156 153 151 150 149 144 140 136 130 123 117 105 111 124 138 139 135 133 130 125 120 117 115 110 107 104 103 101 98 94 89 85 80 75
173 170 170 169 165 168 165 161 159 155 152 153 157 155 153 153 157 157 151 146 137 119 119 137 142 144 144 137 135 129 125 120 115 112 108 105 104 103 98 93 90 81 77
179 174 175 174 170 170 170 164 165 165 164 168 167 161 158 158 175 180 178 173 163 156 139 134 136 138 144 146 145 139 136 133 131 127 123 116 113 112 109 103 95 86 77
188 182 180 177 174 173 173 169 175 178 174 173 170 169 170 176 183 189 193 190 182 171 155 134 133 126 135 143 145 147 151 149 143 136 137 136 137 139 134 120 113 109 100
193 187 184 181 177 177 177 178 179 177 178 171 166 169 181 187 191 196 201 197 189 182 172 164 157 147 143 151 160 163 167 166 166 158 158 162 166 167 166 172 156 143 117
199 192 187 186 187 188 188 185 178 176 176 171 169 175 185 196 204 202 205 206 198 194 194 193 189 184 175 172 179 180 184 181 179 177 179 189 191 190 187 174 150 147 134
204 201 196 194 193 193 191 189 182 184 184 191 191 188 197 198 206 209 201 206 210 205 206 206 201 201 198 190 173 182 196 197 193 193 196 190 190 199 198 190 184 173 139
216 213 206 203 199 196 196 196 192 192 193 201 208 207 204 211 190 198 207 209 211 218 218 211 209 210 211 207 193 186 196 208 212 211 212 207 198 203 192 182 176 168 149
224 223 218 209 205 203 203 203 203 201 198 201 206 226 238 210 202 194 204 212 214 223 228 223 215 215 214 211 204 198 195 209 217 220 222 225 217 211 204 201 203 190 176
229 229 230 221 215 211 210 208 208 208 208 210 208 206 211 212 218 216 213 207 213 218 224 228 223 221 218 216 211 207 203 214 223 227 231 230 222 214 215 214 213 205 205
246 255 249 233 226 221 214 212 210 212 213 216 217 214 215 213 210 214 223 213 216 214 218 226 225 224 221 220 218 211 210 217 223 228 231 228 223 216 214 211 210 213 211
254 255 257 249 235 231 223 215 213 213 214 216 219 221 226 231 220 219 220 220 226 224 221 225 221 220 218 220 216 210 215 218 225 228 232 227 221 215 213 213 213 218 221
256 264 260 249 247 235 226 219 217 218 218 220 222 224 228 231 224 220 217 217 224 231 224 223 209 211 210 214 217 211 218 218 219 224 225 223 216 209 212 214 214 217 222
266 260 260 250 250 245 230 221 222 223 221 223 224 224 227 230 231 226 223 219 223 232 231 219 208 203 202 209 210 215 222 212 209 212 214 216 213 210 210 212 213 215 222
271 264 257 249 243 247 237 226 227 226 224 223 224 223 225 226 229 227 224 224 229 235 239 225 218 206 200 207 211 216 221 205 207 209 208 207 210 211 208 211 214 217 222
269 262 258 246 239 240 236 228 228 224 224 224 221 223 226 224 225 224 223 222 225 225 233 238 225 207 208 207 207 211 212 208 205 203 203 205 206 205 205 209 213 216 220
280 268 258 247 244 242 237 229 230 226 224 226 224 223 227 223 225 222 217 219 222 223 225 227 222 210 214 210 209 208 211 210 211 203 204 205 205 207 206 208 211 212 216
280 275 263 252 248 247 244 236 232 230 227 226 226 225 228 223 224 222 216 217 220 222 222 216 215 210 214 209 210 214 215 214 220 210 207 209 208 210 211 212 214 213 216
285 278 268 259 252 248 248 244 238 238 236 232 231 229 227 222 223 223 216 215 215 216 212 205 204 205 207 205 204 210 218 221 226 217 207 207 207 209 212 214 216 216 220
282 278 274 262 253 246 245 245 238 239 238 236 234 234 231 226 224 225 219 214 212 213 210 206 203 205 202 197 205 207 219 217 230 219 218 215 212 216 219 217 217 220 224
281 275 274 266 255 251 257 261 256 245 239 236 236 236 232 223 219 224 224 217 214 213 211 213 213 213 214 210 206 201 202 208 229 208 220 229 220 224 224 223 220 221 226
288 282 274 267 259 258 257 259 260 250 240 237 235 233 234 229 217 220 220 216 222 227 223 220 220 217 215 209 201 203 208 216 227 206 210 227 225 238 235 230 225 224 227
291 286 282 274 264 257 256 260 265 250 244 241 238 234 228 230 225 222 219 218 223 227 227 224 226 226 219 209 207 209 209 210 219 207 210 230 232 242 243 237 226 222 224
291 287 285 282 271 265 257 254 261 248 242 243 241 237 236 236 231 224 217 217 222 230 230 226 230 223 213 210 203 194 189 194 219 217 212 227 233 249 253 244 231 228 228
288 288 284 282 278 271 267 261 260 245 241 243 246 242 237 240 236 228 223 216 219 225 223 220 216 209 205 200 196 203 201 203 211 217 202 207 210 220 251 246 237 234 232
Height
1549 1550 1552 1553 1555 1556 1558 1559 1560 1561 1562 1563 1564 1565 1566 1567 1567 1568 1568 1569 1569 1570 1570 1570 1571 1571 1571 1571 1571 1571 1571 1571 1571 1571 1571 1571 1571 1570 1570 1570 1570 1570 1570
1548 1549 1550 1552 1553 1555 1556 1558 1559 1560 1561 1562 1563 1564 1565 1566 1567 1567 1568 1568 1569 1569 1570 1570 1570 1570 1570 1571 1571 1571 1571 1571 1571 1571 1571 1571 1570 1570 1570 1570 1570 1570 1570
1545 1547 1549 1550 1551 1553 1554 1556 1557 1559 1560 1561 1562 1563 1564 1565 1566 1567 1567 1568 1568 1568 1569 1569 1569 1570 1570 1570 1571 1571 1571 1571 1571 1571 1571 1571 1570 1570 1570 1570 1570 1570 1569
1543 1545 1546 1548 1549 1551 1552 1554 1556 1557 1558 1560 1561 1562 1563 1563 1564 1565 1566 1567 1567 1568 1568 1568 1569 1569 1570 1570 1570 1570 1570 1570 1571 1571 1570 1570 1570 1570 1570 1570 1569 1569 1569
1541 1542 1544 1545 1547 1549 1550 1552 1554 1555 1557 1558 1559 1560 1561 1562 1563 1564 1565 1565 1566 1566 1567 1567 1568 1568 1568 1569 1569 1569 1570 1570 1570 1570 1570 1570 1570 1570 1569 1569 1569 1568 1568
1538 1540 1541 1543 1545 1546 1548 1550 1551 1553 1555 1556 1557 1559 1559 1560 1561 1562 1563 1564 1564 1565 1565 1566 1566 1567 1567 1568 1568 1569 1569 1569 1569 1569 1569 1569 1569 1569 1568 1568 1568 1568 1567
1534 1536 1538 1540 1542 1543 1545 1547 1549 1550 1552 1554 1555 1557 1558 1558 1559 1560 1561 1562 1562 1563 1564 1564 1565 1565 1566 1566 1567 1567 1568 1568 1568 1568 1567 1568 1568 1567 1567 1567 1566 1566 1566
1530 1532 1535 1537 1538 1540 1542 1544 1546 1547 1549 1551 1553 1555 1556 1558 1557 1557 1558 1559 1560 1561 1562 1562 1563 1563 1564 1564 1564 1565 1566 1566 1566 1567 1566 1566 1566 1566 1566 1565 1565 1565 1565
1526 1528 1531 1533 1535 1537 1538 1540 1542 1544 1546 1548 1550 1552 1554 1554 1554 1555 1555 1556 1557 1558 1559 1559 1560 1560 1561 1562 1562 1563 1563 1564 1565 1565 1565 1565 1564 1564 1564 1564 1564 1563 1563
1521 1524 1526 1529 1531 1533 1535 1537 1539 1541 1543 1544 1546 1548 1550 1550 1552 1552 1553 1553 1554 1555 1555 1556 1557 1558 1558 1559 1559 1560 1561 1562 1562 1563 1563 1563 1562 1562 1562 1562 1562 1562 1561
1518 1520 1522 1524 1527 1529 1531 1533 1535 1537 1539 1540 1542 1543 1545 1546 1548 1549 1549 1550 1551 1552 1552 1553 1554 1554 1555 1556 1556 1557 1558 1559 1559 1560 1560 1560 1560 1560 1560 1560 1560 1560 1559
1513 1515 1517 1519 1522 1524 1526 1528 1530 1532 1534 1536 1538 1539 1541 1543 1544 1545 1546 1546 1547 1548 1549 1549 1550 1551 1552 1552 1553 1554 1554 1555 1556 1557 1557 1557 1558 1557 1557 1557 1557 1557 1557
1509 1511 1513 1515 1517 1519 1521 1523 1525 1527 1529 1531 1533 1535 1537 1539 1540 1542 1543 1543 1544 1544 1545 1546 1546 1547 1548 1549 1549 1550 1551 1551 1552 1553 1554 1554 1554 1555 1554 1554 1554 1554 1554
1505 1506 1508 1510 1512 1514 1516 1518 1520 1522 1524 1526 1528 1530 1532 1534 1536 1537 1539 1540 1540 1540 1540 1541 1542 1543 1544 1545 1545 1546 1547 1548 1549 1549 1550 1550 1551 1551 1551 1551 1551 1551 1551
1501 1502 1503 1505 1507 1509 1511 1512 1515 1517 1519 1521 1523 1525 1527 1528 1530 1532 1534 1535 1537 1536 1537 1537 1538 1539 1540 1541 1542 1542 1543 1544 1545 1545 1546 1546 1547 1547 1547 1547 1548 1547 1547
1497 1498 1499 1500 1502 1504 1506 1507 1509 1511 1513 1515 1518 1520 1521 1523 1525 1527 1528 1530 1531 1533 1532 1533 1533 1534 1535 1537 1538 1539 1539 1540 1540 1541 1542 1542 1543 1543 1543 1544 1543 1543 1544
1492 1493 1494 1496 1497 1499 1500 1501 1504 1506 1507 1509 1511 1514 1516 1518 1519 1521 1523 1524 1526 1528 1528 1528 1529 1530 1531 1532 1533 1534 1535 1535 1536 1536 1537 1538 1538 1539 1539 1539 1539 1539 1539
1488 1488 1490 1491 1493 1494 1494 1496 1498 1500 1501 1503 1505 1508 1510 1512 1513 1515 1517 1519 1520 1522 1523 1523 1524 1525 1526 1528 1529 1530 1531 1531 1532 1532 1533 1533 1534 1534 1534 1535 1535 1535 1535
1483 1484 1485 1486 1487 1488 1489 1491 1492 1494 1496 1497 1499 1501 1503 1505 1507 1509 1511 1513 1515 1516 1517 1518 1519 1520 1521 1523 1524 1525 1526 1526 1527 1527 1528 1528 1529 1529 1530 1530 1530 1531 1531
1479 1479 1480 1481 1482 1483 1484 1485 1487 1488 1490 1492 1494 1495 1497 1499 1501 1503 1505 1507 1509 1510 1512 1513 1514 1515 1516 1517 1519 1520 1520 1521 1522 1522 1523 1523 1524 1524 1525 1525 1525 1526 1526
1475 1475 1475 1476 1477 1478 1479 1480 1481 1483 1484 1486 1488 1489 1491 1493 1495 1497 1499 1501 1503 1505 1506 1507 1508 1510 1510 1512 1513 1514 1515 1516 1516 1517 1517 1518 1519 1519 1520 1520 1520 1520 1521
1471 1471 1471 1471 1472 1472 1474 1475 1477 1478 1479 1480 1482 1483 1485 1487 1489 1491 1493 1495 1497 1499 1500 1502 1502 1504 1505 1507 1508 1509 1510 1511 1511 1513 1513 1513 1514 1514 1515 1515 1515 1515 1515
1466 1466 1466 1466 1466 1467 1469 1470 1471 1472 1473 1474 1476 1478 1479 1481 1482 1484 1486 1488 1490 1492 1495 1496 1497 1498 1499 1501 1503 1504 1505 1506 1506 1507 1508 1508 1509 1509 1509 1510 1510 1510 1510
1460 1461 1461 1461 1461 1462 1463 1464 1465 1467 1467 1469 1470 1472 1473 1474 1476 1478 1480 1482 1484 1486 1488 1490 1491 1493 1495 1496 1498 1499 1500 1501 1501 1502 1503 1503 1503 1504 1504 1504 1505 1505 1505
1456 1456 1455 1455 1456 1457 1458 1459 1460 1461 1461 1463 1464 1466 1467 1468 1470 1472 1474 1476 1478 1479 1481 1484 1486 1488 1489 1491 1492 1494 1494 1495 1495 1496 1498 1498 1498 1498 1499 1499 1499 1500 1500
1452 1451 1451 1451 1451 1451 1453 1454 1455 1456 1456 1457 1459 1460 1462 1463 1465 1466 1468 1470 1471 1473 1475 1477 1479 1481 1483 1484 1486 1487 1488 1489 1489 1490 1491 1493 1493 1493 1493 1494 1494 1494 1495